TimeCDT,TemperatureF,Dew PointF,Humidity,Sea Level PressureIn,VisibilityMPH,Wind Direction,Wind SpeedMPH,Gust SpeedMPH,PrecipitationIn,Events,Conditions,WindDirDegrees,DateUTC
12:12 AM,53.6,51.8,94,30.04,10.0,NNW,6.9,-,N/A,,Clear,330,2013-09-02 05:12:00
12:32 AM,53.6,51.8,94,30.04,10.0,NNW,8.1,-,N/A,,Clear,330,2013-09-02 05:32:00
12:53 AM,53.6,51.8,94,30.04,10.0,NNW,6.9,-,N/A,,Clear,330,2013-09-02 05:53:00
1:12 AM,53.6,51.8,94,30.04,10.0,NW,5.8,-,N/A,,Clear,320,2013-09-02 06:12:00
1:32 AM,53.6,51.8,94,30.05,10.0,NW,4.6,-,N/A,,Clear,310,2013-09-02 06:32:00
1:53 AM,53.6,51.8,94,30.05,10.0,NW,6.9,-,N/A,,Clear,320,2013-09-02 06:53:00
2:12 AM,53.6,51.8,94,30.05,10.0,NNW,6.9,-,N/A,,Clear,330,2013-09-02 07:12:00
2:32 AM,53.6,51.8,94,30.05,10.0,NNW,5.8,-,N/A,,Clear,340,2013-09-02 07:32:00
2:53 AM,53.6,51.8,94,30.05,10.0,NNW,5.8,-,N/A,,Clear,340,2013-09-02 07:53:00
3:12 AM,51.8,50.0,94,30.05,10.0,NNW,4.6,-,N/A,,Clear,340,2013-09-02 08:12:00
3:32 AM,51.8,50.0,94,30.05,10.0,NNW,4.6,-,N/A,,Clear,340,2013-09-02 08:32:00
3:52 AM,51.8,50.0,94,30.06,10.0,Calm,Calm,-,N/A,,Clear,0,2013-09-02 08:52:00
4:12 AM,51.8,50.0,94,30.06,10.0,Calm,Calm,-,N/A,,Clear,0,2013-09-02 09:12:00
4:32 AM,50.0,48.2,94,30.06,10.0,Calm,Calm,-,N/A,,Clear,0,2013-09-02 09:32:00
4:52 AM,48.2,46.4,93,30.07,10.0,Calm,Calm,-,N/A,,Clear,0,2013-09-02 09:52:00
5:12 AM,48.2,46.4,93,30.07,10.0,WNW,5.8,-,N/A,,Clear,290,2013-09-02 10:12:00
5:32 AM,48.2,46.4,93,30.07,10.0,WNW,3.5,-,N/A,,Clear,300,2013-09-02 10:32:00
5:52 AM,46.4,46.4,100,30.08,10.0,Calm,Calm,-,N/A,,Clear,0,2013-09-02 10:52:00
6:13 AM,46.4,46.4,100,30.08,10.0,Calm,Calm,-,N/A,,Clear,0,2013-09-02 11:13:00
6:32 AM,46.4,44.6,93,30.08,10.0,WNW,3.5,-,N/A,,Clear,300,2013-09-02 11:32:00
6:52 AM,46.4,44.6,93,30.09,10.0,WNW,3.5,-,N/A,,Clear,300,2013-09-02 11:52:00
7:12 AM,48.2,46.4,93,30.10,10.0,West,4.6,-,N/A,,Clear,280,2013-09-02 12:12:00
7:32 AM,48.2,46.4,93,30.10,10.0,WNW,4.6,-,N/A,,Clear,290,2013-09-02 12:32:00
7:52 AM,51.8,50.0,94,30.10,10.0,NW,4.6,-,N/A,,Clear,310,2013-09-02 12:52:00
8:12 AM,53.6,51.8,94,30.10,10.0,NNW,6.9,-,N/A,,Clear,330,2013-09-02 13:12:00
8:32 AM,55.4,51.8,88,30.11,10.0,NW,5.8,-,N/A,,Clear,320,2013-09-02 13:32:00
8:52 AM,57.2,53.6,88,30.11,10.0,NNW,5.8,-,N/A,,Clear,330,2013-09-02 13:52:00
9:13 AM,57.2,53.6,88,30.11,10.0,NNW,5.8,-,N/A,,Clear,330,2013-09-02 14:13:00
9:32 AM,59.0,51.8,77,30.12,10.0,NW,6.9,-,N/A,,Clear,320,2013-09-02 14:32:00
9:52 AM,60.8,51.8,72,30.12,10.0,NW,6.9,-,N/A,,Clear,310,2013-09-02 14:52:00
10:13 AM,62.6,51.8,68,30.12,10.0,NW,8.1,-,N/A,,Scattered Clouds,310,2013-09-02 15:13:00
10:32 AM,62.6,51.8,68,30.12,10.0,NW,8.1,-,N/A,,Scattered Clouds,310,2013-09-02 15:32:00
10:52 AM,64.4,51.8,64,30.12,10.0,NW,10.4,-,N/A,,Scattered Clouds,310,2013-09-02 15:52:00
11:13 AM,64.4,51.8,64,30.13,10.0,NW,9.2,17.3,N/A,,Scattered Clouds,320,2013-09-02 16:13:00
11:32 AM,64.4,51.8,64,30.12,10.0,NNW,11.5,-,N/A,,Scattered Clouds,330,2013-09-02 16:32:00
11:52 AM,64.4,51.8,64,30.12,10.0,North,11.5,-,N/A,,Clear,350,2013-09-02 16:52:00
12:12 PM,66.2,50.0,56,30.12,10.0,NNW,6.9,-,N/A,,Clear,340,2013-09-02 17:12:00
12:32 PM,66.2,51.8,60,30.11,10.0,North,6.9,-,N/A,,Clear,350,2013-09-02 17:32:00
12:53 PM,66.2,51.8,60,30.10,10.0,North,8.1,-,N/A,,Clear,350,2013-09-02 17:53:00
1:12 PM,68.0,51.8,56,30.10,10.0,North,8.1,-,N/A,,Clear,360,2013-09-02 18:12:00
1:32 PM,69.8,48.2,46,30.10,10.0,North,9.2,-,N/A,,Clear,360,2013-09-02 18:32:00
1:53 PM,69.8,50.0,49,30.10,10.0,NNW,8.1,-,N/A,,Clear,330,2013-09-02 18:53:00
2:12 PM,69.8,48.2,46,30.09,10.0,North,6.9,-,N/A,,Clear,350,2013-09-02 19:12:00
2:32 PM,69.8,48.2,46,30.09,10.0,North,9.2,-,N/A,,Clear,350,2013-09-02 19:32:00
2:53 PM,69.8,48.2,46,30.08,10.0,North,8.1,-,N/A,,Clear,350,2013-09-02 19:53:00
3:12 PM,69.8,48.2,46,30.08,10.0,NNW,8.1,-,N/A,,Clear,340,2013-09-02 20:12:00
3:32 PM,71.6,48.2,43,30.08,10.0,NNW,9.2,-,N/A,,Clear,340,2013-09-02 20:32:00
3:53 PM,71.6,50.0,46,30.07,10.0,North,4.6,-,N/A,,Clear,360,2013-09-02 20:53:00
4:12 PM,71.6,48.2,43,30.07,10.0,NNW,6.9,-,N/A,,Clear,340,2013-09-02 21:12:00
4:32 PM,71.6,46.4,41,30.07,10.0,North,6.9,-,N/A,,Clear,360,2013-09-02 21:32:00
4:53 PM,71.6,46.4,41,30.06,10.0,North,5.8,-,N/A,,Clear,360,2013-09-02 21:53:00
5:12 PM,71.6,48.2,43,30.07,10.0,NNE,4.6,-,N/A,,Clear,20,2013-09-02 22:12:00
5:32 PM,71.6,48.2,43,30.06,10.0,NNW,6.9,-,N/A,,Clear,340,2013-09-02 22:32:00
5:53 PM,69.8,48.2,46,30.06,10.0,North,4.6,-,N/A,,Clear,350,2013-09-02 22:53:00
6:12 PM,69.8,48.2,46,30.06,10.0,North,4.6,-,N/A,,Clear,350,2013-09-02 23:12:00
6:32 PM,69.8,48.2,46,30.06,10.0,North,3.5,-,N/A,,Clear,360,2013-09-02 23:32:00
6:53 PM,68.0,51.8,56,30.06,10.0,North,3.5,-,N/A,,Clear,350,2013-09-02 23:53:00
7:12 PM,66.2,53.6,64,30.06,10.0,North,3.5,-,N/A,,Clear,10,2013-09-03 00:12:00
7:32 PM,64.4,53.6,68,30.06,10.0,Calm,Calm,-,N/A,,Clear,0,2013-09-03 00:32:00
7:52 PM,62.6,53.6,72,30.06,10.0,Calm,Calm,-,N/A,,Clear,0,2013-09-03 00:52:00
8:12 PM,60.8,53.6,77,30.06,10.0,NE,3.5,-,N/A,,Clear,40,2013-09-03 01:12:00
8:33 PM,57.2,53.6,88,30.06,10.0,ENE,3.5,-,N/A,,Clear,60,2013-09-03 01:33:00
8:52 PM,57.2,53.6,88,30.07,10.0,ENE,3.5,-,N/A,,Clear,70,2013-09-03 01:52:00
9:12 PM,55.4,51.8,88,30.07,10.0,East,4.6,-,N/A,,Clear,80,2013-09-03 02:12:00
9:33 PM,53.6,51.8,94,30.08,10.0,ENE,3.5,-,N/A,,Clear,70,2013-09-03 02:33:00
9:52 PM,55.4,51.8,88,30.08,10.0,ENE,4.6,-,N/A,,Clear,70,2013-09-03 02:52:00
10:12 PM,53.6,50.0,88,30.08,10.0,Calm,Calm,-,N/A,,Clear,0,2013-09-03 03:12:00
10:33 PM,55.4,51.8,88,30.08,10.0,Calm,Calm,-,N/A,,Clear,0,2013-09-03 03:33:00
10:52 PM,53.6,51.8,94,30.07,10.0,Calm,Calm,-,N/A,,Clear,0,2013-09-03 03:52:00
11:12 PM,53.6,51.8,94,30.07,10.0,Calm,Calm,-,N/A,,Clear,0,2013-09-03 04:12:00
11:32 PM,51.8,48.2,88,30.08,10.0,Calm,Calm,-,N/A,,Clear,0,2013-09-03 04:32:00
11:52 PM,51.8,50.0,94,30.08,10.0,Calm,Calm,-,N/A,,Clear,0,2013-09-03 04:52:00